NWS643 UUEE-LCLK

Flight info

Callsign NWS643
Flight time 3h 22m
Altitude 35000
Route EMGAS3J EMGAS DCT EKTUT DCT UMSIS DCT 50N042E/K0819F360 DCT OGURA DCT SM DCT ODIRA/N0450F360 DCT CRM DCT GEM DCT MUT/N0445F370 DCT VESAR DCT ALSUS DCT RUDER
Aircraft B752/M-SDE2E3FGHIJ3J4J7RWXY/LB1

Departure

Time 2026-05-05 11:46
Airport Sheremetyevo International Airport (UUEE)

Arrival

Time 2026-05-05 15:08
Airport Larnaca International Airport (LCLK)
Time Latitude Longitude Altitude Speed Heading
2026-05-05 11:08 55.97746 37.41008 638 ft 0 kts 75°
2026-05-05 11:32 55.97745 37.41003 638 ft 3 kts 75°
2026-05-05 11:33 55.97741 37.40976 638 ft 2 kts 75°
2026-05-05 11:33 55.97737 37.40945 638 ft 4 kts 77°
2026-05-05 11:33 55.97737 37.40894 638 ft 4 kts 108°
2026-05-05 11:33 55.97750 37.40862 638 ft 1 kts 154°
2026-05-05 11:34 55.97760 37.40858 638 ft 2 kts 179°
2026-05-05 11:34 55.97774 37.40857 638 ft 1 kts 167°
2026-05-05 11:34 55.97777 37.40856 638 ft 0 kts 165°
2026-05-05 11:39 55.97773 37.40858 638 ft 1 kts 165°
2026-05-05 11:39 55.97755 37.40867 638 ft 2 kts 159°
2026-05-05 11:39 55.97741 37.40886 638 ft 3 kts 141°
2026-05-05 11:39 55.97718 37.40917 638 ft 4 kts 146°
2026-05-05 11:40 55.97686 37.40941 638 ft 8 kts 159°
2026-05-05 11:40 55.97642 37.41041 638 ft 14 kts 85°
2026-05-05 11:40 55.97596 37.41142 638 ft 15 kts 161°
2026-05-05 11:40 55.97551 37.41285 638 ft 19 kts 78°
2026-05-05 11:41 55.97595 37.41590 638 ft 30 kts 75°
2026-05-05 11:41 55.97648 37.41951 638 ft 30 kts 74°
2026-05-05 11:41 55.97700 37.42299 638 ft 28 kts 75°
2026-05-05 11:41 55.97751 37.42625 638 ft 27 kts 75°
2026-05-05 11:42 55.97768 37.42769 638 ft 0 kts 106°
2026-05-05 11:42 55.97768 37.42770 638 ft 0 kts 109°
2026-05-05 11:42 55.97751 37.42786 638 ft 7 kts 165°
2026-05-05 11:42 55.97725 37.42798 638 ft 0 kts 166°
2026-05-05 11:44 55.97707 37.42805 638 ft 4 kts 166°
2026-05-05 11:44 55.97666 37.42824 638 ft 6 kts 167°
2026-05-05 11:44 55.97619 37.42818 638 ft 7 kts 208°
2026-05-05 11:45 55.97590 37.42738 638 ft 8 kts 253°
2026-05-05 11:45 55.97551 37.42480 638 ft 47 kts 256°
2026-05-05 11:45 55.97404 37.41494 638 ft 116 kts 255°
2026-05-05 11:45 55.97146 37.39749 731 ft 170 kts 255°
2026-05-05 11:46 55.96829 37.37710 1492 ft 180 kts 255°
2026-05-05 11:46 55.96487 37.35679 2429 ft 169 kts 253°
2026-05-05 11:46 55.96128 37.33667 2832 ft 175 kts 253°
2026-05-05 11:46 55.95763 37.31584 3169 ft 185 kts 256°
2026-05-05 11:47 55.95439 37.29291 3326 ft 207 kts 256°
2026-05-05 11:47 55.95064 37.26776 3649 ft 223 kts 255°
2026-05-05 11:47 55.94651 37.24068 4009 ft 239 kts 255°
2026-05-05 11:47 55.94207 37.21186 4398 ft 254 kts 255°
2026-05-05 11:48 55.93269 37.15181 5845 ft 259 kts 254°
2026-05-05 11:48 55.92796 37.12175 6604 ft 260 kts 253°
2026-05-05 11:48 55.92315 37.09128 7374 ft 261 kts 254°
2026-05-05 11:49 55.91835 37.06097 8093 ft 262 kts 255°
2026-05-05 11:49 55.91620 37.02940 8735 ft 267 kts 277°
2026-05-05 11:49 55.92243 36.99937 9377 ft 274 kts 303°
2026-05-05 11:49 55.93598 36.97646 10125 ft 281 kts 320°
2026-05-05 11:50 55.95168 36.95644 10796 ft 284 kts 320°
2026-05-05 11:50 55.96740 36.93633 11477 ft 286 kts 321°
2026-05-05 11:50 55.98559 36.92153 12069 ft 300 kts 343°
2026-05-05 11:50 56.00570 36.91946 12684 ft 310 kts
2026-05-05 11:51 56.02645 36.92965 13234 ft 322 kts 22°
2026-05-05 11:51 56.04470 36.95096 13749 ft 331 kts 37°
2026-05-05 11:51 56.06200 36.97619 14312 ft 332 kts 33°
2026-05-05 11:51 56.08001 36.99966 14811 ft 334 kts 31°
2026-05-05 11:52 56.09876 37.02378 15208 ft 344 kts 37°
2026-05-05 11:52 56.11550 37.05624 15261 ft 367 kts 55°
2026-05-05 11:52 56.12627 37.09631 15733 ft 371 kts 73°
2026-05-05 11:52 56.13253 37.14071 16201 ft 377 kts 76°
2026-05-05 11:53 56.13874 37.18592 16764 ft 378 kts 76°
2026-05-05 11:53 56.14305 37.23216 17185 ft 382 kts 90°
2026-05-05 11:53 56.14059 37.27805 17676 ft 381 kts 106°
2026-05-05 11:53 56.13132 37.32158 18120 ft 379 kts 123°
2026-05-05 11:54 56.11617 37.35823 18591 ft 375 kts 140°
2026-05-05 11:54 56.09601 37.38629 19007 ft 370 kts 155°
2026-05-05 11:54 56.07384 37.40719 19470 ft 370 kts 158°
2026-05-05 11:54 56.05077 37.42794 19908 ft 374 kts 159°
2026-05-05 11:55 56.02788 37.44789 20368 ft 376 kts 159°
2026-05-05 11:55 56.00462 37.46780 20816 ft 379 kts 159°
2026-05-05 11:55 55.98136 37.48811 21254 ft 384 kts 154°
2026-05-05 11:55 55.95999 37.51625 21641 ft 397 kts 139°
2026-05-05 11:56 55.94300 37.55394 22082 ft 406 kts 123°
2026-05-05 11:56 55.93160 37.59834 22470 ft 413 kts 108°
2026-05-05 11:56 55.92566 37.64834 22842 ft 419 kts 99°
2026-05-05 11:56 55.92082 37.69849 23331 ft 419 kts 103°
2026-05-05 11:57 55.91295 37.74741 23626 ft 421 kts 117°
2026-05-05 11:57 55.89997 37.79254 24118 ft 418 kts 122°
2026-05-05 11:57 55.88612 37.83794 24447 ft 423 kts 122°
2026-05-05 11:57 55.87262 37.88184 24921 ft 423 kts 122°
2026-05-05 11:58 55.85895 37.92590 25294 ft 425 kts 122°
2026-05-05 11:58 55.84311 37.96868 25645 ft 422 kts 135°
2026-05-05 11:58 55.82230 38.00367 25957 ft 417 kts 150°
2026-05-05 11:58 55.79777 38.02797 26352 ft 408 kts 164°
2026-05-05 11:59 55.77141 38.04087 26627 ft 403 kts 177°
2026-05-05 11:59 55.74451 38.04415 26992 ft 397 kts 187°
2026-05-05 11:59 55.71792 38.03850 27334 ft 391 kts 199°
2026-05-05 11:59 55.69246 38.02398 27640 ft 387 kts 209°
2026-05-05 12:00 55.66970 38.00164 27956 ft 382 kts 220°
2026-05-05 12:00 55.64982 37.97187 28257 ft 380 kts 230°
2026-05-05 12:00 55.63370 37.93586 28539 ft 378 kts 241°
2026-05-05 12:00 55.62206 37.89571 28858 ft 377 kts 248°
2026-05-05 12:01 55.60949 37.85462 28864 ft 389 kts 238°
2026-05-05 12:01 55.59269 37.81830 28896 ft 401 kts 228°
2026-05-05 12:01 55.57167 37.78699 28922 ft 414 kts 218°
2026-05-05 12:01 55.54732 37.76219 28947 ft 428 kts 208°
2026-05-05 12:02 55.52048 37.74472 28970 ft 441 kts 199°
2026-05-05 12:02 55.49094 37.73476 28991 ft 455 kts 190°
2026-05-05 12:02 55.46040 37.73318 29012 ft 469 kts 181°
2026-05-05 12:02 55.42849 37.74031 29034 ft 482 kts 172°
2026-05-05 12:03 55.39709 37.75608 29078 ft 495 kts 163°
2026-05-05 12:03 55.36669 37.78023 29399 ft 500 kts 157°
2026-05-05 12:03 55.33641 37.80747 29823 ft 499 kts 157°
2026-05-05 12:03 55.30650 37.83179 30174 ft 496 kts 163°
2026-05-05 12:04 55.27462 37.84877 30522 ft 490 kts 172°
2026-05-05 12:04 55.24227 37.85772 30937 ft 484 kts 178°
2026-05-05 12:04 55.20992 37.86217 31255 ft 482 kts 181°
2026-05-05 12:04 55.17749 37.86399 31561 ft 480 kts 183°
2026-05-05 12:05 55.14529 37.86416 31859 ft 479 kts 185°
2026-05-05 12:05 55.11318 37.86327 32151 ft 478 kts 185°
2026-05-05 12:05 55.08069 37.86168 32356 ft 478 kts 186°
2026-05-05 12:05 55.04812 37.85965 32691 ft 476 kts 186°
2026-05-05 12:06 55.01601 37.85734 32933 ft 476 kts 186°
2026-05-05 12:06 54.98443 37.85487 33182 ft 475 kts 187°
2026-05-05 12:06 54.95227 37.85222 33433 ft 474 kts 187°
2026-05-05 12:06 54.92046 37.84952 33605 ft 475 kts 187°
2026-05-05 12:07 54.88817 37.84673 33820 ft 475 kts 187°
2026-05-05 12:07 54.85532 37.84386 34068 ft 474 kts 187°
2026-05-05 12:07 54.82341 37.84107 34291 ft 473 kts 187°
2026-05-05 12:07 54.79130 37.83823 34427 ft 474 kts 187°
2026-05-05 12:08 54.75966 37.83545 34625 ft 474 kts 187°
2026-05-05 12:08 54.72767 37.83262 34780 ft 474 kts 186°
2026-05-05 12:08 54.66412 37.82712 34897 ft 474 kts 185°
2026-05-05 12:09 54.59922 37.82996 34899 ft 476 kts 181°
2026-05-05 12:09 54.53474 37.83384 34906 ft 477 kts 181°
2026-05-05 12:10 54.47087 37.84436 34923 ft 480 kts 169°
2026-05-05 12:10 54.41072 37.88477 34926 ft 487 kts 154°
2026-05-05 12:11 54.35249 37.93810 34911 ft 486 kts 154°
2026-05-05 12:11 54.29388 37.99224 34919 ft 484 kts 154°
2026-05-05 12:12 54.23628 38.04562 34920 ft 485 kts 153°
2026-05-05 12:12 54.17793 38.09966 34919 ft 486 kts 153°
2026-05-05 12:13 54.12052 38.15270 34922 ft 485 kts 153°
2026-05-05 12:13 54.06331 38.20541 34930 ft 484 kts 153°
2026-05-05 12:14 54.00592 38.25812 34922 ft 484 kts 153°
2026-05-05 12:14 53.94848 38.31072 34914 ft 483 kts 153°
2026-05-05 12:15 53.89142 38.36281 34910 ft 484 kts 153°
2026-05-05 12:15 53.83295 38.41601 34907 ft 486 kts 153°
2026-05-05 12:16 53.77493 38.46863 34912 ft 485 kts 152°
2026-05-05 12:16 53.71453 38.51276 34918 ft 484 kts 161°
2026-05-05 12:17 53.65266 38.54976 34920 ft 486 kts 161°
2026-05-05 12:17 53.59130 38.58601 34914 ft 484 kts 161°
2026-05-05 12:18 53.52944 38.62229 34915 ft 484 kts 161°
2026-05-05 12:18 53.46817 38.65803 34922 ft 485 kts 161°
2026-05-05 12:19 53.40504 38.69472 34915 ft 484 kts 161°
2026-05-05 12:19 53.34327 38.73050 34923 ft 484 kts 161°
2026-05-05 12:20 53.28138 38.76624 34918 ft 484 kts 161°
2026-05-05 12:20 53.22064 38.80121 34920 ft 480 kts 160°
2026-05-05 12:21 53.16015 38.83593 34921 ft 479 kts 161°
2026-05-05 12:21 53.09898 38.87094 34919 ft 481 kts 161°
2026-05-05 12:22 53.03714 38.90622 34923 ft 480 kts 161°
2026-05-05 12:22 52.97490 38.94161 34920 ft 478 kts 161°
2026-05-05 12:23 52.91267 38.97689 34923 ft 478 kts 160°
2026-05-05 12:23 52.85178 39.01132 34928 ft 478 kts 160°
2026-05-05 12:24 52.78943 39.04646 34927 ft 478 kts 160°
2026-05-05 12:24 52.72852 39.08069 34928 ft 478 kts 160°
2026-05-05 12:25 52.67440 39.11102 34931 ft 477 kts 161°
2026-05-05 12:25 52.61260 39.14555 34930 ft 477 kts 161°
2026-05-05 12:26 52.55071 39.18003 34935 ft 477 kts 160°
2026-05-05 12:26 52.48905 39.21428 34935 ft 476 kts 160°
2026-05-05 12:27 52.42830 39.24792 34943 ft 476 kts 160°
2026-05-05 12:27 52.36795 39.28125 34944 ft 476 kts 160°
2026-05-05 12:28 52.30765 39.31445 34950 ft 476 kts 160°
2026-05-05 12:28 52.24707 39.34772 34944 ft 475 kts 160°
2026-05-05 12:29 52.18647 39.38089 34943 ft 474 kts 160°
2026-05-05 12:29 52.12625 39.41377 34945 ft 474 kts 160°
2026-05-05 12:30 52.06560 39.44678 34944 ft 474 kts 160°
2026-05-05 12:30 52.00554 39.47939 34948 ft 474 kts 160°
2026-05-05 12:31 51.94496 39.51217 34952 ft 475 kts 160°
2026-05-05 12:31 51.88417 39.54498 34949 ft 475 kts 160°
2026-05-05 12:32 51.82304 39.57788 34955 ft 475 kts 160°
2026-05-05 12:32 51.76295 39.61085 34954 ft 474 kts 156°
2026-05-05 12:33 51.70801 39.66349 34976 ft 473 kts 140°
2026-05-05 12:33 51.65933 39.73222 34963 ft 473 kts 138°
2026-05-05 12:34 51.61123 39.80067 34965 ft 472 kts 138°
2026-05-05 12:34 51.56314 39.86923 34968 ft 473 kts 138°
2026-05-05 12:35 51.51523 39.93743 34974 ft 473 kts 138°
2026-05-05 12:35 51.46661 40.00652 34975 ft 473 kts 138°
2026-05-05 12:36 51.41832 40.07492 34982 ft 472 kts 138°
2026-05-05 12:36 51.37019 40.14292 34988 ft 472 kts 138°
2026-05-05 12:37 51.32199 40.21082 34985 ft 472 kts 138°
2026-05-05 12:37 51.27338 40.27910 34984 ft 472 kts 138°
2026-05-05 12:38 51.22526 40.34650 34985 ft 472 kts 138°
2026-05-05 12:38 51.17755 40.41312 34986 ft 472 kts 138°
2026-05-05 12:39 51.12937 40.48021 34987 ft 472 kts 138°
2026-05-05 12:39 51.08101 40.54736 34994 ft 472 kts 138°
2026-05-05 12:40 51.03253 40.61448 34982 ft 472 kts 138°
2026-05-05 12:40 50.98371 40.68187 34980 ft 472 kts 139°
2026-05-05 12:41 50.93516 40.74871 34984 ft 471 kts 139°
2026-05-05 12:41 50.88662 40.81534 34984 ft 472 kts 139°
2026-05-05 12:42 50.83767 40.88233 34981 ft 472 kts 139°
2026-05-05 12:42 50.78869 40.94917 34983 ft 472 kts 139°
2026-05-05 12:43 50.74009 41.01530 34981 ft 471 kts 139°
2026-05-05 12:43 50.69186 41.08074 34989 ft 471 kts 139°
2026-05-05 12:44 50.64299 41.14688 34986 ft 471 kts 138°
2026-05-05 12:44 50.59461 41.21215 34985 ft 470 kts 138°
2026-05-05 12:45 50.54646 41.27695 34991 ft 470 kts 138°
2026-05-05 12:45 50.49811 41.34181 34991 ft 470 kts 138°
2026-05-05 12:46 50.44938 41.40701 34998 ft 469 kts 138°
2026-05-05 12:46 50.40154 41.47085 34997 ft 469 kts 138°
2026-05-05 12:47 50.35365 41.53458 34993 ft 469 kts 138°
2026-05-05 12:47 50.30512 41.59898 34993 ft 469 kts 138°
2026-05-05 12:48 50.25684 41.66285 35001 ft 469 kts 139°
2026-05-05 12:48 50.20815 41.72711 35007 ft 469 kts 139°
2026-05-05 12:49 50.16031 41.79006 35010 ft 468 kts 139°
2026-05-05 12:49 50.11084 41.85499 35014 ft 468 kts 139°
2026-05-05 12:50 50.05959 41.91315 35024 ft 470 kts 152°
2026-05-05 12:50 49.99931 41.94544 35066 ft 475 kts 169°
2026-05-05 12:51 49.96769 41.95002 35232 ft 475 kts 179°
2026-05-05 12:51 49.93602 41.94699 35388 ft 476 kts 187°
2026-05-05 12:51 49.90485 41.93661 35520 ft 477 kts 194°
2026-05-05 12:51 49.87309 41.92174 35665 ft 477 kts 196°
2026-05-05 12:52 49.84193 41.90609 35803 ft 477 kts 197°
2026-05-05 12:52 49.81144 41.89006 35918 ft 477 kts 198°
2026-05-05 12:52 49.75162 41.85750 36015 ft 471 kts 198°
2026-05-05 12:53 49.69157 41.82405 36016 ft 473 kts 199°
2026-05-05 12:53 49.63156 41.79036 36016 ft 475 kts 199°
2026-05-05 12:54 49.54104 41.73947 36015 ft 476 kts 199°
2026-05-05 12:55 49.48129 41.70595 36017 ft 476 kts 198°
2026-05-05 12:55 49.42138 41.67241 36020 ft 476 kts 199°
2026-05-05 12:56 49.36101 41.63869 36019 ft 476 kts 198°
2026-05-05 12:56 49.30106 41.60531 36011 ft 476 kts 198°
2026-05-05 12:57 49.24117 41.57203 36017 ft 477 kts 198°
2026-05-05 12:57 49.18036 41.53834 36019 ft 478 kts 198°
2026-05-05 12:58 49.12040 41.50520 36015 ft 477 kts 198°
2026-05-05 12:58 49.06006 41.47194 36019 ft 477 kts 198°
2026-05-05 12:59 48.99979 41.43880 36021 ft 477 kts 198°
2026-05-05 12:59 48.93906 41.40550 36017 ft 477 kts 198°
2026-05-05 13:00 48.84872 41.35611 36017 ft 478 kts 198°
2026-05-05 13:01 48.72582 41.28923 36013 ft 477 kts 197°
2026-05-05 13:01 48.66480 41.25616 36007 ft 477 kts 197°
2026-05-05 13:02 48.60346 41.22300 36009 ft 478 kts 197°
2026-05-05 13:02 48.54195 41.18982 36009 ft 478 kts 197°
2026-05-05 13:03 48.48035 41.15669 36001 ft 478 kts 197°
2026-05-05 13:03 48.41910 41.12382 36001 ft 477 kts 197°
2026-05-05 13:04 48.35818 41.09123 36008 ft 477 kts 197°
2026-05-05 13:04 48.29683 41.05848 36012 ft 478 kts 197°
2026-05-05 13:05 48.23539 41.02577 36005 ft 478 kts 197°
2026-05-05 13:05 48.17357 40.99295 36023 ft 478 kts 197°
2026-05-05 13:06 48.11162 40.96013 35995 ft 478 kts 197°
2026-05-05 13:06 48.04973 40.92742 36012 ft 478 kts 197°
2026-05-05 13:07 47.98831 40.89506 36002 ft 478 kts 197°
2026-05-05 13:07 47.92631 40.86247 36005 ft 478 kts 197°
2026-05-05 13:08 47.86488 40.83026 36006 ft 478 kts 197°
2026-05-05 13:08 47.80280 40.79779 36014 ft 478 kts 197°
2026-05-05 13:09 47.74054 40.76532 36018 ft 478 kts 197°
2026-05-05 13:09 47.68051 40.73408 36010 ft 478 kts 197°
2026-05-05 13:10 47.62023 40.70279 36001 ft 478 kts 197°
2026-05-05 13:10 47.55876 40.67096 36008 ft 477 kts 197°
2026-05-05 13:11 47.49663 40.63887 36011 ft 477 kts 197°
2026-05-05 13:11 47.43471 40.60697 36011 ft 477 kts 197°
2026-05-05 13:12 47.37291 40.57520 36007 ft 477 kts 197°
2026-05-05 13:12 47.31096 40.54345 36010 ft 477 kts 197°
2026-05-05 13:13 47.24891 40.51172 36010 ft 476 kts 197°
2026-05-05 13:13 47.18691 40.48008 36012 ft 477 kts 197°
2026-05-05 13:14 47.12530 40.44784 36006 ft 478 kts 201°
2026-05-05 13:14 47.06623 40.40530 36014 ft 480 kts 204°
2026-05-05 13:15 47.00739 40.36235 36011 ft 480 kts 204°
2026-05-05 13:15 46.94854 40.31941 36001 ft 479 kts 203°
2026-05-05 13:16 46.88971 40.27655 35998 ft 479 kts 203°
2026-05-05 13:16 46.83076 40.23369 36003 ft 479 kts 203°
2026-05-05 13:17 46.77231 40.19130 35998 ft 479 kts 203°
2026-05-05 13:17 46.71402 40.14913 36001 ft 479 kts 203°
2026-05-05 13:18 46.65533 40.10678 36013 ft 480 kts 203°
2026-05-05 13:18 46.59716 40.06489 35998 ft 480 kts 203°
2026-05-05 13:19 46.54005 40.02388 36012 ft 481 kts 203°
2026-05-05 13:19 46.48244 39.98259 36009 ft 480 kts 203°
2026-05-05 13:20 46.42417 39.94093 36008 ft 480 kts 203°
2026-05-05 13:20 46.36568 39.89922 36004 ft 480 kts 203°
2026-05-05 13:21 46.30746 39.85780 36005 ft 480 kts 203°
2026-05-05 13:21 46.24903 39.81633 36009 ft 481 kts 203°
2026-05-05 13:22 46.19093 39.77519 36007 ft 481 kts 203°
2026-05-05 13:22 46.16216 39.75485 36311 ft 482 kts 203°
2026-05-05 13:22 46.13243 39.73387 36046 ft 487 kts 203°
2026-05-05 13:23 46.07455 39.69307 36008 ft 481 kts 203°
2026-05-05 13:23 46.01653 39.65229 36009 ft 484 kts 203°
2026-05-05 13:24 45.95859 39.61165 35996 ft 485 kts 203°
2026-05-05 13:24 45.89970 39.57043 35995 ft 482 kts 203°
2026-05-05 13:25 45.84144 39.52976 36004 ft 483 kts 203°
2026-05-05 13:25 45.78218 39.48849 35989 ft 481 kts 203°
2026-05-05 13:26 45.72384 39.44795 35984 ft 482 kts 203°
2026-05-05 13:26 45.66621 39.40802 35991 ft 480 kts 203°
2026-05-05 13:27 45.60803 39.36777 35987 ft 481 kts 203°
2026-05-05 13:27 45.54933 39.32727 35975 ft 479 kts 202°
2026-05-05 13:28 45.49072 39.28691 35978 ft 478 kts 202°
2026-05-05 13:28 45.43327 39.24745 35984 ft 476 kts 202°
2026-05-05 13:29 45.37484 39.20742 35971 ft 477 kts 202°
2026-05-05 13:29 45.31679 39.16773 35979 ft 477 kts 202°
2026-05-05 13:30 45.25878 39.12816 35965 ft 476 kts 203°
2026-05-05 13:30 45.20123 39.08899 35959 ft 476 kts 203°
2026-05-05 13:31 45.14296 39.04943 35970 ft 476 kts 203°
2026-05-05 13:31 45.08320 39.00894 35957 ft 476 kts 202°
2026-05-05 13:32 45.02529 38.96980 35967 ft 475 kts 203°
2026-05-05 13:32 44.96738 38.93075 35965 ft 474 kts 203°
2026-05-05 13:33 44.90946 38.89178 35968 ft 473 kts 203°
2026-05-05 13:33 44.85110 38.85260 35958 ft 473 kts 203°
2026-05-05 13:34 44.79322 38.81382 35965 ft 474 kts 203°
2026-05-05 13:34 44.73888 38.76712 35969 ft 477 kts 212°
2026-05-05 13:35 44.68571 38.71680 35965 ft 477 kts 212°
2026-05-05 13:35 44.63227 38.66620 35966 ft 476 kts 212°
2026-05-05 13:36 44.57941 38.61623 35973 ft 476 kts 212°
2026-05-05 13:36 44.52631 38.56612 35965 ft 475 kts 212°
2026-05-05 13:37 44.47341 38.51631 35967 ft 476 kts 212°
2026-05-05 13:37 44.41998 38.46610 35962 ft 475 kts 212°
2026-05-05 13:38 44.36760 38.41700 35972 ft 476 kts 212°
2026-05-05 13:38 44.31458 38.36739 35974 ft 476 kts 212°
2026-05-05 13:39 44.26129 38.31765 35960 ft 475 kts 211°
2026-05-05 13:39 44.20821 38.26821 35963 ft 475 kts 211°
2026-05-05 13:40 44.15552 38.21924 35968 ft 475 kts 211°
2026-05-05 13:40 44.10284 38.17039 35960 ft 475 kts 211°
2026-05-05 13:41 44.05046 38.12192 35966 ft 474 kts 211°
2026-05-05 13:41 43.99807 38.07355 35967 ft 474 kts 211°
2026-05-05 13:42 43.94523 38.02487 35964 ft 475 kts 211°
2026-05-05 13:42 43.89201 37.97595 35961 ft 474 kts 212°
2026-05-05 13:43 43.83944 37.92772 35976 ft 473 kts 212°
2026-05-05 13:43 43.78685 37.87957 35967 ft 474 kts 212°
2026-05-05 13:44 43.73385 37.83116 35973 ft 473 kts 212°
2026-05-05 13:44 43.68098 37.78298 35976 ft 474 kts 212°
2026-05-05 13:45 43.62799 37.73479 35979 ft 474 kts 212°
2026-05-05 13:45 43.57503 37.68673 35972 ft 474 kts 212°
2026-05-05 13:46 43.52184 37.63855 35978 ft 473 kts 212°
2026-05-05 13:46 43.46880 37.59063 35981 ft 474 kts 212°
2026-05-05 13:47 43.41613 37.54313 35982 ft 473 kts 212°
2026-05-05 13:47 43.36290 37.49523 35983 ft 473 kts 212°
2026-05-05 13:48 43.30965 37.44742 35980 ft 474 kts 212°
2026-05-05 13:48 43.25650 37.39980 35988 ft 474 kts 212°
2026-05-05 13:49 43.20306 37.35202 35985 ft 473 kts 212°
2026-05-05 13:49 43.14850 37.30333 35992 ft 473 kts 211°
2026-05-05 13:50 43.09413 37.25493 35994 ft 474 kts 211°
2026-05-05 13:50 43.03984 37.20671 35992 ft 473 kts 212°
2026-05-05 13:51 42.98635 37.15929 36003 ft 473 kts 212°
2026-05-05 13:51 42.93290 37.11200 36001 ft 473 kts 212°
2026-05-05 13:52 42.87986 37.06519 36005 ft 473 kts 212°
2026-05-05 13:52 42.82543 37.01723 36006 ft 474 kts 212°
2026-05-05 13:53 42.77163 36.96995 36005 ft 473 kts 212°
2026-05-05 13:53 42.71660 36.92645 36017 ft 470 kts 201°
2026-05-05 13:54 42.65589 36.90337 36014 ft 470 kts 191°
2026-05-05 13:54 42.59425 36.88604 36008 ft 468 kts 190°
2026-05-05 13:55 42.53259 36.86955 36009 ft 469 kts 190°
2026-05-05 13:55 42.47069 36.85338 36009 ft 468 kts 190°
2026-05-05 13:56 42.40915 36.83747 36007 ft 468 kts 190°
2026-05-05 13:56 42.34678 36.82143 36007 ft 468 kts 190°
2026-05-05 13:57 42.28465 36.80551 36007 ft 467 kts 190°
2026-05-05 13:57 42.22306 36.78976 36008 ft 467 kts 190°
2026-05-05 13:58 42.16140 36.77403 36005 ft 467 kts 190°
2026-05-05 13:58 42.09981 36.75835 36006 ft 467 kts 190°
2026-05-05 13:59 42.00714 36.73481 36009 ft 468 kts 190°
2026-05-05 14:00 41.91445 36.71134 36005 ft 468 kts 190°
2026-05-05 14:00 41.85130 36.69539 36007 ft 468 kts 190°
2026-05-05 14:01 41.78828 36.67950 36008 ft 467 kts 190°
2026-05-05 14:01 41.72565 36.66375 36007 ft 466 kts 190°
2026-05-05 14:02 41.66420 36.64832 36005 ft 466 kts 190°
2026-05-05 14:02 41.60249 36.63285 36007 ft 466 kts 190°
2026-05-05 14:03 41.54044 36.61734 36005 ft 467 kts 190°
2026-05-05 14:03 41.47804 36.60176 36007 ft 466 kts 190°
2026-05-05 14:04 41.41640 36.58640 36018 ft 465 kts 191°
2026-05-05 14:04 41.35477 36.57108 36022 ft 466 kts 191°
2026-05-05 14:05 41.29312 36.55578 36011 ft 466 kts 191°
2026-05-05 14:05 41.23051 36.54004 36013 ft 465 kts 191°
2026-05-05 14:06 41.16811 36.52419 36016 ft 466 kts 191°
2026-05-05 14:06 41.10672 36.50864 36009 ft 467 kts 191°
2026-05-05 14:07 41.04498 36.49302 36008 ft 467 kts 191°
2026-05-05 14:07 40.98286 36.47734 36004 ft 466 kts 191°
2026-05-05 14:08 40.92103 36.46176 35999 ft 467 kts 191°
2026-05-05 14:08 40.85767 36.44583 36004 ft 465 kts 191°
2026-05-05 14:09 40.79612 36.43038 36002 ft 466 kts 191°
2026-05-05 14:09 40.73406 36.41484 35995 ft 467 kts 191°
2026-05-05 14:10 40.67182 36.39928 35990 ft 469 kts 191°
2026-05-05 14:10 40.60919 36.38365 35980 ft 469 kts 191°
2026-05-05 14:11 40.54714 36.36819 35966 ft 468 kts 192°
2026-05-05 14:11 40.48527 36.35281 35960 ft 467 kts 192°
2026-05-05 14:12 40.42231 36.33718 35962 ft 468 kts 191°
2026-05-05 14:12 40.35958 36.32164 35962 ft 468 kts 191°
2026-05-05 14:13 40.29737 36.30627 35954 ft 468 kts 191°
2026-05-05 14:13 40.23529 36.29095 35959 ft 469 kts 191°
2026-05-05 14:14 40.17282 36.27556 35953 ft 467 kts 191°
2026-05-05 14:14 40.11041 36.26022 35957 ft 466 kts 191°
2026-05-05 14:15 40.04826 36.24497 35950 ft 466 kts 191°
2026-05-05 14:15 39.98618 36.22976 35941 ft 467 kts 191°
2026-05-05 14:16 39.92326 36.21438 35936 ft 467 kts 191°
2026-05-05 14:16 39.86018 36.19899 35932 ft 467 kts 191°
2026-05-05 14:17 39.79744 36.18371 35937 ft 468 kts 191°
2026-05-05 14:17 39.73566 36.16511 35939 ft 467 kts 196°
2026-05-05 14:18 39.67372 36.14322 35926 ft 467 kts 195°
2026-05-05 14:18 39.61276 36.12216 35920 ft 466 kts 195°
2026-05-05 14:19 39.55207 36.10137 35908 ft 467 kts 195°
2026-05-05 14:19 39.49095 36.08054 35900 ft 467 kts 195°
2026-05-05 14:20 39.42972 36.05972 35909 ft 467 kts 195°
2026-05-05 14:20 39.36869 36.03902 35925 ft 467 kts 195°
2026-05-05 14:21 39.30739 36.01827 35939 ft 468 kts 195°
2026-05-05 14:21 39.24662 35.99775 35951 ft 467 kts 195°
2026-05-05 14:22 39.18518 35.97702 35950 ft 467 kts 195°
2026-05-05 14:22 39.12418 35.95649 35942 ft 467 kts 196°
2026-05-05 14:23 39.06265 35.93581 35944 ft 468 kts 195°
2026-05-05 14:23 39.00082 35.91507 35943 ft 469 kts 196°
2026-05-05 14:24 38.93917 35.89442 35941 ft 468 kts 196°
2026-05-05 14:24 38.87793 35.87396 35941 ft 468 kts 196°
2026-05-05 14:25 38.81600 35.85329 35940 ft 468 kts 196°
2026-05-05 14:25 38.75489 35.83294 35943 ft 468 kts 196°
2026-05-05 14:26 38.69332 35.81247 35937 ft 469 kts 196°
2026-05-05 14:26 38.63216 35.79217 35929 ft 469 kts 196°
2026-05-05 14:27 38.57801 35.77424 35931 ft 468 kts 196°
2026-05-05 14:27 38.51665 35.75394 35936 ft 468 kts 196°
2026-05-05 14:28 38.45558 35.73377 35930 ft 470 kts 196°
2026-05-05 14:28 38.39504 35.71382 35933 ft 469 kts 197°
2026-05-05 14:29 38.33320 35.69347 35930 ft 469 kts 197°
2026-05-05 14:29 38.27198 35.67336 35929 ft 470 kts 197°
2026-05-05 14:30 38.21030 35.65315 35936 ft 469 kts 197°
2026-05-05 14:30 38.14923 35.63315 35942 ft 469 kts 197°
2026-05-05 14:31 38.08744 35.61296 35949 ft 470 kts 197°
2026-05-05 14:31 38.02589 35.59289 35958 ft 470 kts 197°
2026-05-05 14:32 37.96440 35.57287 35964 ft 471 kts 197°
2026-05-05 14:32 37.90255 35.55276 35957 ft 470 kts 197°
2026-05-05 14:33 37.83964 35.53235 35946 ft 470 kts 197°
2026-05-05 14:33 37.77759 35.51225 35952 ft 471 kts 197°
2026-05-05 14:34 37.71613 35.49238 35951 ft 470 kts 197°
2026-05-05 14:34 37.65431 35.47242 35949 ft 471 kts 197°
2026-05-05 14:35 37.59261 35.45254 35952 ft 472 kts 197°
2026-05-05 14:35 37.53038 35.43252 35954 ft 472 kts 198°
2026-05-05 14:36 37.46885 35.41277 35941 ft 471 kts 198°
2026-05-05 14:36 37.40711 35.39297 35949 ft 471 kts 198°
2026-05-05 14:37 37.34616 35.37347 35944 ft 472 kts 198°
2026-05-05 14:37 37.28337 35.35340 35936 ft 472 kts 198°
2026-05-05 14:38 37.22070 35.33341 35945 ft 473 kts 197°
2026-05-05 14:38 37.15890 35.31374 35937 ft 472 kts 198°
2026-05-05 14:39 37.09786 35.29434 35939 ft 471 kts 198°
2026-05-05 14:39 37.03659 35.27489 35937 ft 472 kts 198°
2026-05-05 14:40 36.97478 35.25531 35934 ft 472 kts 198°
2026-05-05 14:40 36.91388 35.23604 35934 ft 471 kts 198°
2026-05-05 14:41 36.85160 35.21638 35938 ft 472 kts 198°
2026-05-05 14:41 36.78880 35.19658 35937 ft 473 kts 198°
2026-05-05 14:42 36.72668 35.17703 35933 ft 473 kts 198°
2026-05-05 14:42 36.66527 35.15774 35939 ft 473 kts 199°
2026-05-05 14:43 36.60447 35.13867 35936 ft 472 kts 199°
2026-05-05 14:43 36.54404 35.11975 35943 ft 472 kts 199°
2026-05-05 14:44 36.48332 35.10077 35944 ft 472 kts 199°
2026-05-05 14:44 36.45264 35.09117 35745 ft 477 kts 199°
2026-05-05 14:44 36.42143 35.08143 35243 ft 482 kts 199°
2026-05-05 14:45 36.38967 35.07154 34736 ft 481 kts 199°
2026-05-05 14:45 36.35878 35.06194 34236 ft 479 kts 200°
2026-05-05 14:45 36.32780 35.05230 33737 ft 480 kts 200°
2026-05-05 14:45 36.29617 35.04244 33232 ft 485 kts 200°
2026-05-05 14:46 36.26379 35.03236 32684 ft 490 kts 200°
2026-05-05 14:46 36.23082 35.02213 32055 ft 494 kts 200°
2026-05-05 14:46 36.19854 35.01212 31437 ft 497 kts 201°
2026-05-05 14:46 36.16538 35.00185 30786 ft 500 kts 201°
2026-05-05 14:47 36.13293 34.99181 30117 ft 503 kts 201°
2026-05-05 14:47 36.10020 34.98168 29423 ft 504 kts 201°
2026-05-05 14:47 36.06731 34.97150 28742 ft 504 kts 201°
2026-05-05 14:47 36.03452 34.96139 28039 ft 501 kts 201°
2026-05-05 14:48 36.00203 34.95137 27336 ft 497 kts 201°
2026-05-05 14:48 35.96989 34.94147 26639 ft 493 kts 201°
2026-05-05 14:48 35.93778 34.93157 25942 ft 491 kts 201°
2026-05-05 14:48 35.90659 34.92196 25259 ft 490 kts 201°
2026-05-05 14:49 35.87434 34.91204 24518 ft 488 kts 201°
2026-05-05 14:49 35.84234 34.90221 23775 ft 486 kts 201°
2026-05-05 14:49 35.81030 34.89236 23019 ft 483 kts 200°
2026-05-05 14:49 35.77903 34.88280 22203 ft 466 kts 200°
2026-05-05 14:50 35.74865 34.87349 21528 ft 456 kts 200°
2026-05-05 14:50 35.71898 34.86438 20923 ft 451 kts 200°
2026-05-05 14:50 35.68995 34.85555 20677 ft 426 kts 200°
2026-05-05 14:50 35.66254 34.84721 20207 ft 403 kts 200°
2026-05-05 14:51 35.63682 34.83934 19854 ft 386 kts 200°
2026-05-05 14:51 35.61215 34.83179 19834 ft 370 kts 201°
2026-05-05 14:51 35.58800 34.82440 19672 ft 361 kts 200°
2026-05-05 14:51 35.56424 34.81710 19260 ft 358 kts 200°
2026-05-05 14:52 35.54083 34.80994 18879 ft 356 kts 200°
2026-05-05 14:52 35.51724 34.80273 18452 ft 354 kts 200°
2026-05-05 14:52 35.49444 34.79579 18088 ft 352 kts 200°
2026-05-05 14:52 35.47114 34.78869 17686 ft 350 kts 200°
2026-05-05 14:53 35.44905 34.77935 17291 ft 339 kts 214°
2026-05-05 14:53 35.43072 34.76367 16842 ft 327 kts 232°
2026-05-05 14:53 35.41756 34.74295 16292 ft 319 kts 249°
2026-05-05 14:53 35.40997 34.71873 15307 ft 324 kts 265°
2026-05-05 14:54 35.40794 34.69295 14782 ft 320 kts 269°
2026-05-05 14:54 35.40395 34.66717 14318 ft 325 kts 259°
2026-05-05 14:54 35.39673 34.64220 13792 ft 329 kts 253°
2026-05-05 14:54 35.38753 34.61710 13031 ft 339 kts 249°
2026-05-05 14:55 35.37726 34.59237 12696 ft 333 kts 248°
2026-05-05 14:55 35.36678 34.56842 12186 ft 334 kts 246°
2026-05-05 14:55 35.35597 34.54471 11739 ft 332 kts 245°
2026-05-05 14:55 35.34497 34.52110 11277 ft 331 kts 245°
2026-05-05 14:56 35.33380 34.49742 10785 ft 330 kts 244°
2026-05-05 14:56 35.32247 34.47360 10330 ft 328 kts 244°
2026-05-05 14:56 35.31138 34.45041 9875 ft 327 kts 244°
2026-05-05 14:56 35.30017 34.42702 9448 ft 324 kts 243°
2026-05-05 14:57 35.28906 34.40391 9066 ft 320 kts 243°
2026-05-05 14:57 35.27784 34.38056 8618 ft 318 kts 243°
2026-05-05 14:57 35.26706 34.35820 8226 ft 315 kts 243°
2026-05-05 14:57 35.25612 34.33547 7775 ft 313 kts 243°
2026-05-05 14:58 35.24529 34.31300 7380 ft 310 kts 243°
2026-05-05 14:58 35.23454 34.29075 6968 ft 307 kts 243°
2026-05-05 14:58 35.22380 34.26851 6548 ft 305 kts 243°
2026-05-05 14:58 35.21349 34.24716 6155 ft 302 kts 242°
2026-05-05 14:59 35.20299 34.22544 5721 ft 301 kts 242°
2026-05-05 14:59 35.19271 34.20418 5332 ft 298 kts 242°
2026-05-05 14:59 35.18245 34.18298 4969 ft 297 kts 242°
2026-05-05 14:59 35.17225 34.16192 4624 ft 296 kts 241°
2026-05-05 15:00 35.16202 34.14080 4278 ft 294 kts 241°
2026-05-05 15:00 35.15514 34.12662 4051 ft 294 kts 241°
2026-05-05 15:00 35.14157 34.09864 3630 ft 293 kts 240°
2026-05-05 15:00 35.13142 34.07777 3315 ft 294 kts 240°
2026-05-05 15:01 35.12123 34.05678 2977 ft 293 kts 240°
2026-05-05 15:01 35.11111 34.03596 2658 ft 291 kts 239°
2026-05-05 15:01 35.10101 34.01519 2417 ft 288 kts 239°
2026-05-05 15:01 35.09095 33.99453 2149 ft 289 kts 239°
2026-05-05 15:02 35.08091 33.97393 2055 ft 283 kts 239°
2026-05-05 15:02 35.07094 33.95348 2066 ft 286 kts 239°
2026-05-05 15:02 35.06087 33.93284 2062 ft 290 kts 239°
2026-05-05 15:02 35.05056 33.91171 2065 ft 289 kts 239°
2026-05-05 15:03 35.04041 33.89092 2064 ft 288 kts 239°
2026-05-05 15:03 35.03025 33.87013 2059 ft 288 kts 239°
2026-05-05 15:03 35.02013 33.84943 2060 ft 289 kts 239°
2026-05-05 15:03 35.00993 33.82858 2063 ft 290 kts 239°
2026-05-05 15:04 34.99957 33.80740 2065 ft 290 kts 239°
2026-05-05 15:04 34.98976 33.78738 1993 ft 271 kts 239°
2026-05-05 15:04 34.98082 33.76912 2037 ft 238 kts 239°
2026-05-05 15:04 34.97301 33.75319 2018 ft 200 kts 239°
2026-05-05 15:05 34.95857 33.72778 2106 ft 185 kts 225°
2026-05-05 15:05 34.94944 33.71676 2114 ft 181 kts 226°
2026-05-05 15:05 34.94138 33.70671 2072 ft 153 kts 226°
2026-05-05 15:06 34.93430 33.69820 1888 ft 139 kts 224°
2026-05-05 15:06 34.92756 33.69001 1630 ft 139 kts 225°
2026-05-05 15:06 34.92069 33.68150 1376 ft 141 kts 225°
2026-05-05 15:06 34.91382 33.67307 1094 ft 143 kts 225°
2026-05-05 15:07 34.90684 33.66456 799 ft 141 kts 225°
2026-05-05 15:07 34.90011 33.65623 544 ft 137 kts 225°
2026-05-05 15:07 34.89341 33.64791 348 ft 137 kts 226°
2026-05-05 15:07 34.88661 33.63967 183 ft 138 kts 223°
2026-05-05 15:08 34.87985 33.63132 30 ft 138 kts 225°
2026-05-05 15:08 34.87346 33.62360 14 ft 108 kts 223°
2026-05-05 15:08 34.86944 33.61871 14 ft 65 kts 225°
2026-05-05 15:08 34.86680 33.61550 20 ft 38 kts 225°
2026-05-05 15:09 34.86647 33.61371 23 ft 22 kts 306°
2026-05-05 15:09 34.86694 33.61306 25 ft 0 kts 312°
2026-05-05 15:09 34.86697 33.61301 25 ft 3 kts 312°
2026-05-05 15:10 34.86711 33.61250 27 ft 9 kts 257°
2026-05-05 15:10 34.86656 33.61156 30 ft 18 kts 229°
2026-05-05 15:10 34.86667 33.61071 32 ft 12 kts 332°
2026-05-05 15:10 34.86756 33.61067 32 ft 7 kts
2026-05-05 15:11 34.86785 33.61069 32 ft 4 kts
2026-05-05 15:11 34.86791 33.61069 32 ft 0 kts